Weather in Novomyrhorod

Ukraine / Kirovohrad Region     48°48′00″N   31°39′04″E
temp.,
°C
wind,
m/s
gust,
m/s
humid.,
%
clouds,
%
prec.,
mm/h
press.,
hPa
HPBL,
m
21 january, fri
fri2123:00−2wsw41198100 0.4 1008389
02:00−2wsw41196100 0.6 1008302
05:00−2w61192100 0.2 1007718
08:00−4w612845 0.3 1009431
11:00−3wsw81281100 0.0 1010877
14:00−2w8127555 0.1 10091128
17:00−3w7137884 0.0 1009761
20:00−4wsw71385100 0.0 1010650
22 january, sat
sat2223:00−4wsw71385100 0.0 1010658
02:00−5wsw71387100 0.0 1010582
05:00−5wsw6129496 0.2 1010574
08:00−5wsw5119396 0.4 1010434
11:00−3w6882100 0.1 1012827
14:00−2w5875100 0.1 10121074
17:00−5wsw3686100 0.1 1013127
20:00−6wsw389235 0.1 1014140
23 january, sun
sun2323:00−5w369773 0.1 1015212
02:00−7nw369657 0.1 1016156
05:00−9nw239894 0.0 101747
08:00−7n259668 0.1 1019190
11:00−5nne4483100 0.0 1021506
14:00−4nne457799 0.1 1022812
17:00−6nne4791100 0.1 1024493
20:00−5nne4793100 0.2 1026646
24 january, mon
mon2423:00−6nne5109498 0.1 1027421
02:00−8n51295100 0.1 1028365
05:00−8n61391100 0.0 1028385
08:00−8n71489100 0.0 1029459
11:00−7n81287100 0.1 1029609
14:00−5nne7986100 0.3 1028656
17:00−6n61193100 0.1 1029476
20:00−6n71292100 0.3 1029504
25 january, tue
tue2523:00−7n71293100 0.1 1029414
02:00−8n61393100 0.1 1028431
05:00−8n61291100 0.0 1028406
08:00−8n61190100 0.1 1028370
11:00−7n6983100 0.0 1028424
14:00−6n6879100 0.0 1026472
17:00−7n4786100 0.0 1026389
20:00−7nnw3791100 0.0 1026318